Time,TemperatureF,DewpointF,PressureIn,WindDirection,WindDirectionDegrees,WindSpeedMPH,WindSpeedGustMPH,Humidity,HourlyPrecipIn,Conditions,Clouds,dailyrainin,SolarRadiationWatts/m^2,SoftwareType,DateUTC
2013-07-20 00:00:00,62.0,57.0,29.99,NE,55,7.0,-999.0,83,-99.99,,,-99.99,0.150000,,2013-07-20 06:00:00,
2013-07-20 00:52:00,62.0,57.0,29.99,NE,55,7.0,-999.0,83,-99.99,,,-99.99,0.150000,,2013-07-20 06:52:00,
2013-07-20 02:00:00,57.0,55.0,29.99,East,89,5.0,-999.0,91,-99.99,,,-99.99,0.160000,,2013-07-20 08:00:00,
2013-07-20 02:52:00,57.0,55.0,29.99,East,89,5.0,-999.0,91,-99.99,,,-99.99,0.160000,,2013-07-20 08:52:00,
2013-07-20 03:00:00,57.0,54.0,29.98,ESE,110,3.0,-999.0,92,-99.99,,,-99.99,0.130000,,2013-07-20 09:00:00,
2013-07-20 03:53:00,57.0,54.0,29.98,ESE,110,3.0,-999.0,92,-99.99,,,-99.99,0.130000,,2013-07-20 09:53:00,
2013-07-20 04:00:00,56.0,55.0,29.98,NE,55,3.0,-999.0,94,-99.99,,,-99.99,0.110000,,2013-07-20 10:00:00,
2013-07-20 04:52:00,56.0,55.0,29.98,NE,55,3.0,-999.0,94,-99.99,,,-99.99,0.110000,,2013-07-20 10:52:00,
2013-07-20 05:00:00,57.0,54.0,29.97,East,87,3.0,-999.0,92,-99.99,,,-99.99,0.140000,,2013-07-20 11:00:00,
2013-07-20 05:52:00,57.0,54.0,29.97,East,87,3.0,-999.0,92,-99.99,,,-99.99,0.140000,,2013-07-20 11:52:00,
2013-07-20 06:00:00,56.0,54.0,29.97,ESE,109,2.0,-999.0,93,-99.99,,,-99.99,3.450000,,2013-07-20 12:00:00,
2013-07-20 06:52:00,56.0,54.0,29.97,ESE,109,2.0,-999.0,93,-99.99,,,-99.99,3.450000,,2013-07-20 12:52:00,
2013-07-20 07:00:00,59.0,55.0,29.97,ESE,118,1.0,-999.0,88,-99.99,,,-99.99,47.799999,,2013-07-20 13:00:00,
2013-07-20 07:53:00,59.0,55.0,29.97,ESE,118,1.0,-999.0,88,-99.99,,,-99.99,47.799999,,2013-07-20 13:53:00,
2013-07-20 08:00:00,61.0,56.0,29.98,East,89,4.0,-999.0,84,-99.99,,,-99.99,102.400002,,2013-07-20 14:00:00,
2013-07-20 08:53:00,61.0,56.0,29.98,East,89,4.0,-999.0,84,-99.99,,,-99.99,102.400002,,2013-07-20 14:53:00,
2013-07-20 09:00:00,67.0,56.0,29.98,ENE,76,7.0,-999.0,69,-99.99,,,-99.99,317.100006,,2013-07-20 15:00:00,
2013-07-20 09:53:00,67.0,56.0,29.98,ENE,76,7.0,-999.0,69,-99.99,,,-99.99,317.100006,,2013-07-20 15:53:00,
2013-07-20 10:00:00,70.0,55.0,29.98,East,87,8.0,-999.0,60,-99.99,,,-99.99,425.600006,,2013-07-20 16:00:00,
2013-07-20 10:52:00,70.0,55.0,29.98,East,87,8.0,-999.0,60,-99.99,,,-99.99,425.600006,,2013-07-20 16:52:00,
2013-07-20 11:00:00,72.0,56.0,29.97,East,91,10.0,-999.0,56,-99.99,,,-99.99,561.099976,,2013-07-20 17:00:00,
2013-07-20 11:53:00,72.0,56.0,29.97,East,91,10.0,-999.0,56,-99.99,,,-99.99,561.099976,,2013-07-20 17:53:00,
2013-07-20 12:00:00,74.0,57.0,29.96,East,88,10.0,-999.0,55,-99.99,,,-99.99,611.700012,,2013-07-20 18:00:00,
2013-07-20 12:59:00,74.0,57.0,29.96,East,88,10.0,-999.0,55,-99.99,,,-99.99,611.700012,,2013-07-20 18:59:00,
2013-07-20 13:00:00,75.0,57.0,29.95,East,97,12.0,-999.0,53,-99.99,,,-99.99,570.700012,,2013-07-20 19:00:00,
2013-07-20 13:56:00,75.0,57.0,29.95,East,97,12.0,-999.0,53,-99.99,,,-99.99,570.700012,,2013-07-20 19:56:00,
2013-07-20 14:57:00,77.0,57.0,29.93,ESE,105,11.0,-999.0,49,-99.99,,,-99.99,689.400024,,2013-07-20 20:57:00,
2013-07-20 15:00:00,79.0,56.0,29.92,ESE,106,9.0,-999.0,46,-99.99,,,-99.99,641.299988,,2013-07-20 21:00:00,
2013-07-20 15:56:00,79.0,56.0,29.92,ESE,106,9.0,-999.0,46,-99.99,,,-99.99,641.299988,,2013-07-20 21:56:00,
2013-07-20 16:00:00,80.0,54.0,29.90,ESE,114,5.0,-999.0,41,-99.99,,,-99.99,589.099976,,2013-07-20 22:00:00,
2013-07-20 17:00:00,80.0,55.0,29.87,ESE,107,7.0,-999.0,43,-99.99,,,-99.99,490.100006,,2013-07-20 23:00:00,
2013-07-20 17:56:00,80.0,55.0,29.87,ESE,107,7.0,-999.0,43,-99.99,,,-99.99,490.100006,,2013-07-20 23:56:00,
2013-07-20 18:00:00,80.0,55.0,29.87,East,84,7.0,-999.0,43,-99.99,,,-99.99,374.200012,,2013-07-21 00:00:00,
2013-07-20 19:00:00,78.0,58.0,29.85,East,93,11.0,-999.0,50,-99.99,,,-99.99,239.600006,,2013-07-21 01:00:00,
2013-07-20 19:59:00,78.0,58.0,29.85,East,93,11.0,-999.0,50,-99.99,,,-99.99,239.600006,,2013-07-21 01:59:00,
2013-07-20 21:00:00,67.0,64.0,29.88,East,92,6.0,-999.0,88,-99.99,,,-99.99,46.060001,,2013-07-21 03:00:00,
2013-07-20 22:00:00,65.0,62.0,29.90,ESE,114,6.0,-999.0,91,-99.99,,,-99.99,0.320000,,2013-07-21 04:00:00,
2013-07-20 22:53:00,65.0,62.0,29.90,ESE,114,6.0,-999.0,91,-99.99,,,-99.99,0.320000,,2013-07-21 04:53:00,
2013-07-20 23:00:00,63.0,61.0,29.89,SE,124,5.0,-999.0,92,-99.99,,,-99.99,0.190000,,2013-07-21 05:00:00,
2013-07-20 23:52:00,63.0,61.0,29.89,SE,124,5.0,-999.0,92,-99.99,,,-99.99,0.190000,,2013-07-21 05:52:00,